Regional Weather Roundup
Issued by NWS

Home | Current Version | Previous Version | Graphics & Text | Print | Product List | Glossary On
Versions: 1 2 3 4 5 6 7 8 9 10 11 12 13 14 15 16 17 18 19 20 21 22 23 24 25 26 27 28 29 30 31 32 33 34 35 36 37 38 39 40 41 42 43 44 45 46 47 48 49 50
000
ASUS43 KLOT 281610
RWRIL

ILLINOIS REGIONAL WEATHER ROUNDUP
NATIONAL WEATHER SERVICE CHICAGO/ROMEOVILLE IL
1000 AM CST WED JAN 28 2015

NOTE: "FAIR" INDICATES FEW OR NO CLOUDS BELOW 12,000 FEET WITH NO
SIGNIFICANT WEATHER AND/OR OBSTRUCTIONS TO VISIBILITY.

* THESE STATIONS ARE NOT UNDER NWS QUALITY CONTROL. THEY ALSO MAY NOT
  REPORT WEATHER SUCH AS PRECIPITATION OR FOG.

ILZ001-002-007-009-015-016-024-281700-
NORTHWEST ILLINOIS

CITY           SKY/WX    TMP DP  RH WIND       PRES   REMARKS
MOLINE         MOSUNNY   28  19  69 SE9G18    30.15F WCI  19
STERLING*      MOSUNNY   28  18  64 SE8       30.21F WCI  20
SAVANNA*       MOSUNNY   31  23  72 SE14      30.19S WCI  20
$$

ILZ003-004-008-010-011-017-018-281700-
NORTH CENTRAL ILLINOIS

CITY           SKY/WX    TMP DP  RH WIND       PRES   REMARKS
ROCKFORD       PTSUNNY   27  19  72 S16       30.24F WCI  15
FREEPORT*      MOSUNNY   27  22  79 S12       30.22F WCI  17
ROCHELLE*      MOSUNNY   25  19  78 SE10      30.23F WCI  15
DE KALB*       MOSUNNY   25  19  80 S13       30.23S WCI  13
PERU*          FAIR      28  20  72 S13       30.24F WCI  18
$$

ILZ005-006-012>014-019>023-281700-
NORTHEAST ILLINOIS

CITY           SKY/WX    TMP DP  RH WIND       PRES   REMARKS
CHICAGO-OHARE  PTSUNNY   27  13  55 S12       30.26S WCI  17
CHICAGO-MIDWAY PTSUNNY   29  16  58 S8        30.27S WCI  21
AURORA         MOSUNNY   28  19  69 SE13      30.25S WCI  17
LANSING*       SUNNY     28  17  63 S10       30.29R WCI  18
JOLIET*        MOSUNNY   28  18  66 SE9       30.27F WCI  19
WAUKEGAN       MOSUNNY   29  16  58 S13       30.25S WCI  19
DUPAGE AIRPORT MOSUNNY   27  17  66 S10       30.24F WCI  17
KANKAKEE*      MOSUNNY   28  20  72 S9        30.29S WCI  19
WHEELING       MOSUNNY   28  13  53 S13       30.27F WCI  17
MORRIS*        MOSUNNY   28  22  78 SE10      30.25F WCI  19
ROMEOVILLE*    MOSUNNY   27  18  69 S13       30.26S WCI  16
NORTHERLY ISL    N/A     28  14  55 S12         N/A  WCI  18
$$

LMZ740>746-281700-
SOUTHERN LAKE MICHIGAN

STATION/POSITION SKY/WX   TEMP    WIND        PRES    VSBY  WAVE
                          AIR SEA DIR/SP/G                  HT/PER
                          (F)     (DEG/KT/KT) (MB)    (MI)  (FT/S)
WAUKEGAN HARBOR            28     180/ 13/ 16   N/A
HARRISON CRIB              26     170/ 16/ 20   N/A
BURNHAM HARBOR             28     160/  8/ 13   N/A
CALUMET HARBOR             27     160/ 12/ 15   N/A
MICHIGAN CITY              26     150/ 12/ 16   N/A
$$

ILZ025>027-034>036-040-047-049-050-058-095>099-281700-
WEST-CENTRAL ILLINOIS

CITY           SKY/WX    TMP DP  RH WIND       PRES   REMARKS
QUINCY         SUNNY     34  27  75 SE17G25   30.11F WCI  23
GALESBURG*     MOSUNNY   30  24  78 SE12G21   30.15F WCI  20
MACOMB*        SUNNY     32  28  87 SE17      30.17F WCI  21
JACKSONVILLE*  SUNNY     36  29  75 SE13G22   30.20F WCI  27
PITTSFIELD*    SUNNY     34  30  85 SE14      30.17F WCI  24
$$

ILZ028>032-037-038-041>044-048-051>054-059>061-281700-
CENTRAL ILLINOIS

CITY           SKY/WX    TMP DP  RH WIND       PRES   REMARKS
PONTIAC        SUNNY     30  22  73 SE14      30.26F WCI  19
BLOOMINGTON    SUNNY     30  20  66 S20       30.24F WCI  17
DECATUR        MOSUNNY   31  24  75 S15       30.27S WCI  20
PEORIA         MOSUNNY   32  22  66 S14       30.22F WCI  22
LACON*         SUNNY     29  18  63 S13G21    30.22F WCI  19
LINCOLN*       MOSUNNY   32  26  78 SE17      30.26S WCI  21
SPRINGFIELD    SUNNY     33  26  75 SE17      30.23F WCI  22
TAYLORVILLE    SUNNY     32  28  86 S16       30.25S WCI  21
$$

ILZ033-039-045-046-055>057-062-063-281700-
EAST-CENTRAL ILLINOIS

CITY           SKY/WX    TMP DP  RH WIND       PRES   REMARKS
CHAMPAIGN      MOSUNNY   29  21  72 S16       30.28S WCI  17
DANVILLE*      MOSUNNY   28  20  74 SE13      30.27F WCI  17
RANTOUL*       MOSUNNY   30  21  68 S16       30.28S WCI  19
MATTOON        SUNNY     30  21  69 S15       30.27F WCI  19
PARIS*         MOSUNNY   29  22  76 SE15      30.31F WCI  17
$$

ILZ079-100>102-281700-
SOUTHWEST ILLINOIS

CITY           SKY/WX    TMP DP  RH WIND       PRES   REMARKS
ALTON          MOSUNNY   36  28  75 S14       30.24F WCI  27
BELLEVILLE     SUNNY     35  31  85 S10G20    30.26S WCI  27
CAHOKIA*       SUNNY     35  29  78 SE14G23   30.25S WCI  26
SPARTA*        SUNNY     33  29  83 SE13      30.28S WCI  24
$$

ILZ064>066-069>071-074>076-080>082-084>086-088>090-092>094-281700-
SOUTH-CENTRAL ILLINOIS

CITY           SKY/WX    TMP DP  RH WIND       PRES   REMARKS
CARBONDALE     MOSUNNY   36  27  69 SE9       30.30S WCI  29
CAIRO*         SUNNY     38  32  79 SE10      30.32R WCI  31
EFFINGHAM*     SUNNY     33  24  68 SE15      30.30F WCI  23
MT. VERNON     MOSUNNY   36  27  69 S13       30.30S WCI  27
CENTRALIA*     SUNNY     35  28  76 S9        30.28S WCI  27
SALEM*         SUNNY     34  28  79 SE9       30.29R WCI  27
METROPOLIS*    SUNNY     37  32  84 SE9       30.31S WCI  30
$$

ILZ067-068-072-073-078-083-087-091-281700-
SOUTHEAST ILLINOIS

CITY           SKY/WX    TMP DP  RH WIND       PRES   REMARKS
LAWRENCEVILLE  SUNNY     31  21  66 SE14      30.34F WCI  21
FLORA*         SUNNY     33  28  82 SE13      30.31F WCI  23
FAIRFIELD*     SUNNY     35  29  80 SE9       30.30F WCI  27
HARRISBURG*    SUNNY     34  29  82 SE10      30.32S WCI  26
ROBINSON*      SUNNY     30  22  72 SE13      30.35F WCI  20
CARMI*         SUNNY     36  31  83 SE15      30.32F WCI  27
$$

ABBREVIATIONS USED IN REMARKS
   TC - TEMPERATURE IN CELSIUS
  WCI - WIND CHILL INDEX
   HX - HEAT INDEX
  VSB - VISIBILITY
$$




USA.gov is the U.S. government's official web portal to all federal, state and local government web resources and services.